Home > Weather > Toulouse > Past weeks

Flag for France Weather for the Past 2 Weeks in Toulouse, Midi-Pyrénées, France

Now
72 °F

Passing clouds.


Feels Like: 75 °F
Forecast: 52 / 76 °F
Wind: 5 mph from East

Location: Toulouse / Blagnac

Current Time: May 4, 2016 at 11:11:43 PM

Latest Report: May 4, 2016 at 8:30 PM


Visibility: N/A

Pressure: 30.04 "Hg

Humidity: 23%

Dew Point: 32 °F

Location of ToulouseLocation

Historic Weather in Toulouse — Graph

°F

Toulouse Temperature Yesterday

Maximum temperature yesterday: 66 °F (at 6:30 PM)
Minimum temperature yesterday: 46 °F (at 5:30 AM)
Average temperature yesterday: 55 °F

High & Low Weather Summary for the Past Weeks

 TemperatureHumidityPressure
High73 °F (May 4, 4:00 PM)100% (Apr 22, 3:30 AM)30.39 "Hg (Apr 22, 3:30 AM)
Low41 °F (May 1, 5:30 AM)20% (May 4, 5:30 PM)29.89 "Hg (Apr 26, 4:00 PM)
Average54 °F63%30.10 "Hg
* Reported Apr 19 8:00 PM — May 4 8:00 PM, Toulouse, Weather by CustomWeather, © 2016

Note: Actual official high and low records may vary slightly from our data, if they occured in-between our weather recording intervals... More about our weather records

Advertising

Toulouse Weather History for the Previous 24 Hours

Scroll right to see more
 ConditionsComfort  
Time TempWeatherWind HumidityBarometerVisibility
8:00 PM
Wed, May 4
72 °FPassing clouds.7 mph25%30.04 "HgN/A
7:30 PM73 °FPassing clouds.8 mph23%30.04 "HgN/A
6:30 PM73 °FPassing clouds.6 mph22%30.04 "HgN/A
6:00 PM73 °FSunny.6 mph22%30.04 "Hg10 mi
5:30 PM73 °FPassing clouds.6 mph20%30.07 "HgN/A
4:30 PM73 °FPassing clouds.7 mph23%30.07 "HgN/A
4:00 PM73 °FPassing clouds.6 mph25%30.09 "HgN/A
3:30 PM72 °FPassing clouds.6 mph23%30.09 "HgN/A
3:00 PM70 °FSunny.6 mph27%30.12 "Hg10 mi
2:30 PM68 °FPassing clouds.8 mph30%30.12 "HgN/A
1:30 PM68 °FSunny.5 mph33%30.15 "Hg10 mi
1:00 PM66 °FPassing clouds.5 mph30%30.15 "HgN/A
12:30 PM64 °FPassing clouds.7 mph34%30.18 "HgN/A
12:00 PM63 °FSunny.5 mph42%30.18 "Hg10 mi
11:30 AM61 °FPassing clouds.5 mph39%30.18 "HgN/A
11:00 AM59 °FPassing clouds.5 mph48%30.18 "HgN/A
10:00 AM57 °FPassing clouds.5 mph51%30.21 "HgN/A
9:30 AM55 °FSunny.3 mph59%30.21 "Hg10 mi
9:00 AM52 °FPassing clouds.5 mph62%30.21 "HgN/A
8:30 AM50 °FPassing clouds.5 mph71%30.21 "HgN/A
8:00 AM46 °FSunny.No wind87%30.21 "Hg10 mi
7:30 AM45 °FClear.No wind87%30.21 "Hg10 mi
7:00 AM43 °FClear.No wind93%30.21 "Hg10 mi
6:30 AM43 °FClear.1 mph93%30.21 "Hg10 mi
6:00 AM43 °FClear.3 mph87%30.21 "Hg10 mi
5:30 AM45 °FClear.1 mph87%30.21 "Hg10 mi
5:00 AM45 °FClear.1 mph87%30.21 "Hg10 mi
4:30 AM45 °FClear.2 mph81%30.21 "Hg10 mi
4:00 AM46 °FClear.No wind82%30.21 "Hg10 mi
3:30 AM46 °FClear.2 mph87%30.24 "Hg10 mi
3:00 AM46 °FClear.1 mph87%30.24 "Hg10 mi
2:30 AM48 °FClear.3 mph82%30.24 "Hg10 mi
2:00 AM48 °FClear.5 mph82%30.24 "Hg10 mi
1:30 AM48 °FClear.6 mph82%30.24 "Hg10 mi
1:00 AM50 °FClear.5 mph76%30.24 "Hg10 mi
12:30 AM52 °FPassing clouds.3 mph72%30.27 "HgN/A
12:00 AM54 °FClear.2 mph67%30.27 "Hg10 mi
11:30 PM
Tue, May 3
55 °FClear.5 mph63%30.27 "Hg10 mi
11:00 PM57 °FClear.5 mph59%30.27 "Hg10 mi
Weather by CustomWeather, © 2016

See weather overviewHow to use our weather pages